TIME,DELAY(SENSOR),PRES,T(CTD),SAL,OXYGEN,RAWTEMP,T(OPTODE),TCPHASE,FLUOR,BETA(BETA700),BETA(BETA412),BETA(BETA440),CDOM,C(CSC),ED(ED412.40),ED(ED444.00),ED(ED489.70),ED(ED554.30),LU(LU411.80),LU(LU443.40),LU(LU489.60),LU(LU554.10),COMP,TILTX,TILTX(TILTY),CHECK
1372801628,5807,496.1700134277344000,6.3249998092651370,34.1506004333496100,62.5960617065429700,608.3118286132812000,6.3154339790344240,51.1791992187500000,52,103,87,79,79,15445,2147747794,2147422747,2148005485,2147873051,2147630180,2147076800,2148246857,2147200539,2059,4,13,61963
1372801736,5809,485.2000122070312500,6.5015997886657715,34.1319999694824200,69.7180862426757800,603.1563110351562000,6.4822621345520020,50.1988410949707000,52,104,84,79,78,15445,2147747465,2147427876,2148007442,2147875456,2147630573,2147071113,2148246043,2147198564,1452,4,13,58639
1372801851,5808,473.4200134277344000,6.6676998138427730,34.1197013854980500,77.7243804931640600,597.5465698242188000,6.6634898185729980,49.1431198120117200,51,104,86,78,78,15443,2147744576,2147426285,2148007424,2147877348,2147629238,2147074916,2148244918,2147200630,1420,4,12,55999
1372801956,5811,462.6799926757812500,6.8583998680114750,34.1029014587402340,85.0332565307617200,592.1093139648438000,6.8388710021972660,48.2098083496093750,52,104,86,80,77,15440,2147744667,2147425600,2148005421,2147875081,2147625654,2147072091,2148242980,2147198336,3522,3,13,39984
1372802059,5808,452.2300109863281000,6.9946999549865720,34.0957984924316400,93.0637664794921900,587.8967285156250000,6.9745559692382810,47.2491683959960940,51,104,87,80,77,15443,2147742116,2147424018,2148005193,2147873883,2147626797,2147077485,2148236233,2147200548,2640,3,13,37076
1372802174,5808,440.7000122070312500,7.0651001930236820,34.0931015014648440,98.9306030273437500,585.6204223632812000,7.0478057861328125,46.5833702087402340,51,104,84,79,77,15446,2147746057,2147424896,2148004964,2147874450,2147624932,2147076918,2148238665,2147197403,2007,4,13,753
1372802300,5808,429.9500122070312500,7.2525000572204590,34.0859985351562500,104.8445968627929700,579.7238769531250000,7.2373309135437010,45.8734588623046900,50,104,86,80,78,15444,2147743058,2147421942,2148005421,2147876553,2147626422,2147078464,2148238345,2147199149,971,4,13,13619
1372802463,5810,419.4800109863281000,7.4690999984741210,34.0909004211425800,111.1252975463867200,572.9749145507812000,7.4538779258728030,45.1279907226562500,51,104,87,78,75,15443,2147744045,2147424484,2148004306,2147875821,2147626852,2147083748,2148240484,2147199122,755,4,13,32075
1372802628,5806,408.1799926757812500,7.7849998474121090,34.0862998962402340,121.6099014282226600,563.3218994140625000,7.7628989219665530,43.9522514343261700,50,105,84,79,76,15444,2147744612,2147425490,2148005696,2147876864,2147623981,2147083849,2148237558,2147202596,2932,4,13,44883
1372802755,5810,397.8299865722656000,8.0712995529174800,34.0898017883300800,129.3827056884765600,554.0457763671875000,8.0591030120849610,43.0782089233398440,50,107,88,79,76,15443,2147737088,2147424850,2148003986,2147873490,2147624320,2147087826,2148238080,2147200603,2477,4,13,20394
1372802908,5809,384.0799865722656000,8.4328002929687500,34.0858001708984400,141.4385070800781200,542.4484863281250000,8.4284172058105470,41.8209495544433600,50,106,89,81,74,15443,2147740068,2147425024,2148004059,2147875154,2147618276,2147084882,2148232118,2147201892,2349,3,12,48393
1372803016,5808,373.0700073242187500,8.7396001815795900,34.0864982604980500,154.0852966308593800,532.8828125000000000,8.7322196960449220,40.6160697937011700,50,105,85,79,74,15443,2147737206,2147424813,2148005449,2147874477,2147619136,2147094518,2148230656,2147200374,1204,4,13,45292
1372803131,5811,361.2099914550781000,8.9232997894287110,34.0926017761230500,162.1092071533203000,526.7573852539062000,8.9263820648193360,39.8857917785644500,50,106,84,80,73,15441,2147737947,2147420937,2148005577,2147877741,2147618240,2147092224,2148230930,2147203520,1876,3,13,63410
1372803248,5810,349.6700134277344000,9.2434997558593750,34.0928001403808600,171.3347015380859400,516.7357177734375000,9.2434339523315430,39.0288810729980500,50,105,90,81,72,15440,2147738203,2147428324,2148010788,2147875126,2147618587,2147095378,2148229723,2147200137,1047,3,13,5799
1372803363,5810,338.8500061035156000,9.4938001632690430,34.1035995483398440,184.3334045410156200,508.9194946289062500,9.4901971817016600,37.9866714477539060,49,104,86,80,71,15445,2147731282,2147423433,2148010733,2147873846,2147616274,2147096082,2148229595,2147201590,307,4,13,15861
1372803478,5811,328.2399902343750000,9.7860002517700200,34.1125984191894500,198.8852996826172000,498.8652038574219000,9.8069734573364260,36.8742103576660160,49,104,85,79,71,15445,2147731629,2147426459,2148007405,2147877476,2147616210,2147098313,2148226971,2147204004,2796,3,14,50006
1372803595,5808,317.4599914550781000,10.0502004623413090,34.1236000061035160,203.8460998535156200,491.0646057128906000,10.0522603988647460,36.4376106262207000,49,106,86,79,70,15443,2147735186,2147426514,2148019355,2147876361,2147614500,2147098980,2148227648,2147202368,1622,3,13,3023
1372803710,5809,306.0499877929687500,10.4015998840332030,34.1473007202148440,210.5205993652343800,479.8291931152344000,10.4048299789428710,35.8534812927246100,49,103,85,80,68,15445,2147733531,2147426496,2148027017,2147876342,2147610697,2147103451,2148230171,2147205229,1189,3,13,3529
1372803825,5808,294.4500122070312500,10.7526998519897460,34.1725006103515600,224.7787017822265600,468.4883117675781000,10.7598896026611330,34.8662300109863300,48,103,86,79,68,15447,2147727414,2147430482,2148028434,2147871085,2147610532,2147114916,2148230939,2147207104,3565,3,13,12698
1372803930,5808,283.9700012207031000,10.9401998519897460,34.1771011352539060,227.0462951660156200,462.4371032714844000,10.9490203857421880,34.6462287902832000,49,103,85,78,67,15442,2147729417,2147431268,2148039552,2147872585,2147608987,2147108068,2148233490,2147206793,3285,3,13,24664
1372804045,5810,273.7399902343750000,11.3416004180908200,34.1721992492675800,217.1277008056640600,450.5857849121094000,11.3187904357910160,34.9971694946289060,48,106,87,80,67,15443,2147729782,2147435657,2148042176,2147873956,2147604443,2147113828,2148235428,2147204297,2284,3,13,42610
1372804186,5807,263.0199890136719000,11.9615001678466800,34.1740989685058600,200.5554046630859400,430.1339111328125000,11.9550504684448240,35.6378898620605500,49,103,84,79,69,15440,2147726765,2147440512,2148069138,2147873764,2147605577,2147122294,2148238793,2147206482,835,3,14,1850
1372804349,5809,252.3099975585937500,12.7763996124267580,34.2575988769531250,217.4275054931640600,403.8251037597656000,12.7703800201416020,34.2404899597168000,48,105,84,80,67,15442,2147728685,2147447012,2148080868,2147875538,2147602166,2147129472,2148244452,2147203766,2755,3,13,46822
1372804520,5754,239.2700042724609400,13.1210002899169920,34.2905006408691400,225.7494964599609400,389.3374023437500000,13.2180099487304690,33.5664405822753900,48,101,86,80,65,15439,2147724306,2147463296,2148139254,2147872155,2147597083,2147139693,2148274331,2147212370,734,2,14,5424
1372804632,5810,228.4400024414062500,13.8213996887207030,34.3572998046875000,225.7418975830078000,369.1217956542969000,13.8411903381347660,33.2612190246582000,48,104,84,80,68,15436,2147724406,2147479131,2148180242,2147874605,2147595446,2147155172,2148291446,2147213696,2277,3,14,25566
1372804735,5809,217.9400024414062500,14.3577003479003900,34.4076004028320300,222.6499938964843800,350.0463867187500000,14.4278697967529300,33.1395912170410160,48,106,87,80,67,15437,2147730221,2147529453,2148324937,2147874752,2147595574,2147191716,2148358290,2147216109,979,2,14,32216
1372804852,5808,207.3000030517578000,14.8535003662109380,34.4407997131347660,223.0894012451172000,336.4652099609375000,14.8448696136474610,32.9157295227050800,48,105,86,78,67,15435,2147736256,2147587117,2148459803,2147876306,2147594148,2147228598,2148424146,2147221074,2412,3,14,30075
1372804979,5808,197.4299926757812500,15.5048999786376950,34.5019989013671900,221.5242004394531200,314.1117858886719000,15.5301504135131840,32.6725311279296900,49,103,85,80,67,15432,2147745581,2147646692,2148602057,2147874331,2147595968,2147269110,2148490587,2147228306,913,3,14,14924
1372805034,5808,193.7500000000000000,15.8784999847412110,34.5379981994628900,219.9004974365234400,301.6292114257812500,15.9123296737670900,32.5785408020019500,49,106,87,80,64,15430,2147746450,2147661915,2148638436,2147874486,2147596068,2147280018,2148503168,2147233764,194,2,14,41122
1372805089,5808,190.4100036621093800,16.2590007781982420,34.5708999633789060,218.2469940185547000,290.8352050781250000,16.2425708770751950,32.5122604370117200,50,105,85,80,66,15425,2147750637,2147677229,2148653202,2147874651,2147594130,2147286674,2148507602,2147233682,2879,3,14,32344
1372805167,5807,186.5099945068359400,17.2996006011962900,34.6833992004394500,214.6331939697265600,261.4941101074219000,17.1394290924072270,32.2905082702636700,59,109,89,81,65,15417,2147761810,2147738697,2148802505,2147872064,2147596973,2147330212,2148576566,2147236096,2114,3,14,23035
1372805282,5807,182.7200012207031200,17.4776992797851560,34.7248992919921900,215.8338012695312500,250.7682037353515600,17.4670791625976560,32.0749702453613300,59,112,87,80,64,15415,2147771245,2147777901,2148886427,2147877412,2147598838,2147346889,2148607396,2147238829,926,2,14,14565
1372805373,5810,178.3399963378906200,17.5035991668701170,34.7313003540039060,216.6669006347656200,249.6224975585937500,17.5020809173584000,32.0139389038085940,57,110,88,80,65,15413,2147780690,2147815981,2148967104,2147877138,2147602212,2147371968,2148638875,2147242752,692,2,14,38760
1372805454,5808,174.1499938964843800,17.5604000091552730,34.7397003173828100,216.6748046875000000,246.0361022949218800,17.6116104125976560,31.9634704589843750,58,109,88,81,63,15414,2147785993,2147809920,2148933330,2147876544,2147601490,2147374418,2148620032,2147241874,659,2,15,19849
1372805533,5805,170.2299957275390600,17.9265003204345700,34.7932014465332000,216.7205047607422000,233.7042999267578000,17.9882106781005860,31.7893505096435550,58,112,90,81,65,15414,2147809700,2147894838,2149130258,2147879314,2147612278,2147417526,2148705892,2147248987,3419,2,15,26623
1372805612,5806,166.7799987792968800,18.1805000305175780,34.8297996520996100,218.3587951660156200,227.2720031738281200,18.1846408843994140,31.6134490966796880,60,109,86,81,63,15410,2147809408,2147875446,2149072758,2147880310,2147611072,2147410523,2148687808,2147245348,2038,2,14,14098
1372805715,5808,162.8200073242187500,18.6790008544921880,34.8824005126953100,217.2362976074218800,211.6757049560547000,18.6609401702880860,31.4582500457763670,76,112,87,80,63,15396,2147822665,2147923821,2149174500,2147879963,2147615488,2147435419,2148724059,2147250048,1125,2,15,41181
1372805832,5806,159.1100006103515600,18.8801002502441400,34.9183998107910160,216.9983978271484400,204.8890991210937500,18.8682308197021500,31.3785896301269530,83,115,88,82,64,15388,2147844662,2147970907,2149274697,2147878226,2147621376,2147459638,2148750573,2147249810,2985,2,15,10929
1372805947,5810,155.1499938964843800,19.2828006744384770,34.9697990417480500,216.8954925537109400,192.2145996093750000,19.2554397583007800,31.2114601135253900,91,121,87,82,63,15377,2147864000,2148007945,2149321664,2147879881,2147626724,2147475200,2148766226,2147253220,2471,2,15,26034
1372806062,5807,150.9900054931640600,19.4771995544433600,34.9989013671875000,217.1365966796875000,185.7812042236328000,19.4520397186279300,31.1117191314697270,96,123,89,82,63,15371,2147991268,2148421440,2150252955,2147888768,2147675227,2147681664,2149157138,2147279945,2692,2,15,513
1372806164,5807,146.0899963378906200,19.7698001861572270,35.0359001159668000,216.5191040039062500,175.5565032958984400,19.7646007537841800,31.0063400268554700,102,126,91,82,63,15349,2148116489,2148756214,2150940032,2147896210,2147718052,2147843830,2149430153,2147297865,2333,2,15,59605
1372806231,5807,142.6600036621093800,19.9608001708984380,35.0522003173828100,216.4674987792968800,170.8917999267578000,19.9072399139404300,30.9465904235839840,107,133,89,82,63,15345,2148229101,2149039963,2151493531,2147902948,2147759360,2147968996,2149638939,2147318619,2237,2,15,38591
1372806322,5811,138.5399932861328000,19.9934997558593750,35.0499000549316400,216.3235015869140600,168.3430938720703000,19.9851894378662100,30.9199504852294920,110,128,90,82,63,15344,2148358372,2149329462,2151996352,2147910985,2147802486,2148076818,2149809344,2147328859,2923,2,15,58880
1372806413,5809,134.8899993896484400,20.0351009368896500,35.0227012634277340,214.8083038330078000,166.9568939208984400,20.0275802612304700,30.9814796447753900,116,129,91,82,62,15323,2148447323,2149446107,2152071762,2147914880,2147829138,2148110674,2149799625,2147335533,204,2,15,41735
1372806530,5807,131.2100067138672000,20.0841007232666000,35.0256004333496100,213.9739990234375000,165.1835021972656200,20.0818290710449220,31.0017890930175780,118,130,90,81,62,15327,2148849453,2150328356,2153635739,2147937554,2147957714,2148448694,2150348224,2147381814,164,2,15,10081
1372806681,5807,127.2099990844726600,20.2234001159667970,35.0331993103027340,214.3809051513672000,160.5581054687500000,20.2233505249023440,30.9184303283691400,135,132,88,83,63,15307,2149244059,2151040521,2154726902,2147957110,2148081133,2148694976,2150688896,2147416758,2925,2,15,41013
1372806810,5810,122.7900009155273400,20.3295001983642580,35.0364990234375000,214.8663024902343800,157.1172943115234400,20.3286399841308600,30.8466892242431640,134,130,89,83,62,15290,2150006564,2152423040,2156858788,2147996480,2148314422,2149194422,2151416466,2147477046,2451,2,16,16680
1372806901,5810,118.3300018310546900,20.5056991577148440,35.0399017333984400,215.9676971435547000,151.7642059326172000,20.4925003051757800,30.7172908782959000,142,133,89,84,62,15280,2150867264,2153824777,2158766509,2148036105,2148560265,2149655533,2152013074,2147537563,2282,2,15,16703
1372806980,5806,114.7300033569336000,20.5762004852294920,35.0362014770507800,216.6714019775390600,149.7050018310547000,20.5555496215820300,30.6531505584716800,155,135,91,84,63,15262,2151964214,2155548278,2160998756,2148089947,2148873837,2150216384,2152732397,2147611364,2717,2,15,35969
1372807071,5809,110.8000030517578100,20.5825996398925780,35.0259017944335940,217.2561950683593800,148.8780975341797000,20.5808696746826170,30.6114692687988280,159,135,92,84,61,15256,2154014966,2158657307,2165003657,2148183314,2149447195,2151244964,2154044050,2147739757,99,2,15,50579
1372807176,5809,106.7699966430664000,20.8297996520996100,35.0255012512207000,218.7658996582031200,141.1548004150390600,20.8174304962158200,30.4313697814941400,178,134,93,85,63,15231,2157049901,2162897691,2169871606,2148290532,2150247954,2152554038,2155538898,2147904603,734,2,15,44043
1372807303,5806,103.1200027465820300,21.2397003173828120,35.0586013793945300,222.2234954833984400,128.5061035156250000,21.2051506042480470,30.0889701843261720,193,132,92,84,62,15223,2160743149,2167707712,2174801261,2148422857,2151266505,2154072137,2157160530,2148079533,3084,1,15,17032
1372807469,5811,98.9199981689453100,21.4048995971679700,35.0819015502929700,227.7041015625000000,122.1346969604492200,21.4006099700927730,29.7339706420898440,132,126,92,85,62,15261,2166121389,2174216530,2181207140,2148636516,2152991698,2156572544,2159647195,2148353645,1699,2,15,52459
1372807524,5808,96.6699981689453100,21.5433006286621100,35.0969009399414060,228.8737945556640600,118.1435012817382800,21.5231094360351560,29.6252803802490230,117,124,91,85,63,15269,2169887570,2178547090,2185325394,2148771465,2154282386,2158411181,2161420800,2148541522,1274,2,15,4859
1372807579,5806,94.5999984741211000,21.7439994812011720,35.1267013549804700,230.2247924804687500,112.9623031616211000,21.6821899414062500,29.4932594299316400,99,122,90,84,58,15268,2172361298,2180921636,2187066724,2148862418,2155267501,2159625334,2162323337,2148641234,1202,2,15,12067
1372807634,5806,92.9700012207031200,21.9929008483886720,35.1461982727050800,231.2378997802734400,104.2508010864257800,21.9498596191406250,29.3328609466552730,89,123,89,84,60,15285,2175984164,2184730660,2190375369,2149001106,2156820406,2161635017,2164020233,2148830902,1695,1,16,7157
1372807713,5809,91.3600006103515600,22.2054004669189450,35.1988983154296900,234.0917968750000000,96.4892883300781200,22.1885509490966800,29.0986003875732420,85,126,90,84,59,15292,2180536173,2189691154,2194969234,2149188461,2158832512,2164213778,2166235346,2149048320,1227,2,15,38738
1372807807,5809,88.6999969482421900,22.3582992553710940,35.2172012329101560,237.4886932373047000,91.4632263183593800,22.3432197570800780,28.8767108917236330,80,125,92,83,58,15296,2187541120,2196111140,2199877211,2149474404,2162585142,2168442413,2169314358,2149375652,280,2,15,5694
1372807862,5803,86.3600006103515600,22.6674003601074220,35.2804985046386700,238.8697967529297000,80.6605224609375000,22.6759700775146500,28.6767997741699220,77,124,88,84,57,15288,2190963620,2199010733,2201783579,2149614134,2165035017,2171006738,2171043648,2149551552,3550,1,15,24229
1372807917,5808,84.1399993896484400,22.9120006561279300,35.3204002380371100,242.5505981445312500,73.5872573852539000,22.8940792083740230,28.4216594696044920,73,122,92,84,57,15288,2197534016,2205969261,2208309650,2150000722,2169347867,2175934793,2174836544,2149953371,2732,2,16,34664
1372807972,5807,81.9800033569336000,23.0501995086669920,35.3370018005371100,245.7425994873047000,68.9632492065429700,23.0367794036865230,28.2223491668701170,73,123,88,85,56,15284,2201362843,2209706240,2211550144,2150283821,2172579227,2179285238,2177095497,2150189321,2645,1,15,23203
1372808027,5810,79.8499984741211000,23.1095008850097660,35.3414001464843750,247.9929962158203000,66.7965469360351600,23.1036701202392580,28.0968894958496100,73,128,91,85,56,15270,2209010907,2217747949,2219357604,2150830546,2178119424,2185400694,2181727085,2150670710,2273,1,16,5265
1372808109,5804,76.0199966430664000,23.2271995544433600,35.3462982177734400,249.8500976562500000,62.8281288146972660,23.2262401580810550,27.9674396514892580,69,127,92,85,59,15273,2222786121,2231539428,2232379035,2151907885,2188050578,2195896173,2189216777,2151461851,1250,2,15,46144
1372808164,5811,72.9800033569336000,23.3570995330810550,35.3442001342773440,250.6627044677734400,58.5495109558105500,23.3584709167480470,27.8794307708740230,69,123,92,85,58,15265,2231808256,2240229888,2240128932,2152811136,2195267593,2202912914,2193872054,2151981202,3541,2,15,18306
1372808219,5808,70.1999969482421900,23.4479999542236330,35.3306999206543000,251.7615966796875000,55.8619689941406250,23.4415702819824220,27.7992191314697270,68,125,92,85,56,15256,2239822162,2247138285,2245508242,2153565147,2203809947,2211627090,2199933147,2152679232,2239,1,16,50000
1372808274,5808,67.6900024414062500,23.6341991424560550,35.3238983154296900,252.2911071777343800,50.3302001953125000,23.6127109527587900,27.7085609436035160,66,124,90,85,55,15260,2249434395,2255713362,2253031808,2154606820,2211468690,2218804928,2204459044,2153214171,1457,2,15,39447
1372808329,5807,65.4899978637695300,23.6644992828369140,35.3160018920898440,253.0216064453125000,49.0089988708496100,23.6536006927490230,27.6613998413085940,64,127,90,85,56,15257,2257410806,2262624731,2258730669,2155431561,2219338569,2226323446,2209451803,2153787565,1083,2,16,16859
1372808386,5809,63.5299987792968750,23.7661991119384770,35.3140983581543000,253.1060943603515600,45.0308418273925800,23.7767906188964840,27.6090106964111330,63,126,92,86,57,15246,2268791213,2273421632,2268472905,2156638226,2229228114,2236059602,2216023890,2154618249,1404,1,16,34551
1372808441,5808,61.7000007629394500,23.8775997161865230,35.3219985961914060,253.6083068847656200,42.0762786865234400,23.8683300018310550,27.5515098571777340,62,126,91,86,58,15264,2272582217,2275922230,2270073371,2157382976,2234994468,2240779538,2218501385,2154912932,1447,2,16,51906
1372808496,5806,59.9599990844726560,24.0550994873046880,35.3274002075195300,253.5646057128906200,37.8186111450195300,24.0003204345703120,27.5011901855468750,62,127,92,85,53,15255,2283881819,2287010459,2280733805,2158918116,2245198628,2250751488,2225360109,2155757074,1278,2,16,1319
1372808563,5806,58.2599983215332000,24.2880992889404300,35.3330001831054700,253.0776977539062500,29.5237693786621100,24.2577209472656250,27.4199790954589840,60,125,95,88,57,15254,2284196571,2286349878,2279400283,2159395721,2249481069,2253780233,2226417225,2155949110,1724,1,16,43854
1372808716,5806,56.4199981689453100,24.4648990631103500,35.3139991760253900,252.5431060791015600,22.8782196044921880,24.4641895294189450,27.3613395690917970,57,125,96,85,55,15257,2302416118,2303762093,2295645440,2161973376,2266326784,2269377389,2236802742,2157236022,615,1,16,2261
1372808807,5807,54.2299995422363300,24.7068004608154300,35.2887992858886700,250.9492950439453000,14.7323799133300780,24.7175903320312500,27.3291091918945300,58,127,92,85,59,15245,2314221147,2315314011,2305959570,2164215680,2282181220,2283272795,2245223506,2158338029,2738,1,15,6601
1372809383,5808,52.6199989318847660,26.2469997406005860,35.3471984863281250,237.3208007812500000,-33.1086387634277340,26.2137203216552730,27.3374099731445300,55,120,91,84,56,15268,2320420818,2319488338,2308483684,2164842953,2300395840,2296715721,2251538852,2159038765,599,2,16,54773
1372809546,5806,50.6699981689453100,26.4305992126464840,35.3669013977050800,233.1927032470703000,-40.4819602966308600,26.4456100463867200,27.4331302642822270,54,121,92,84,56,15275,2317244306,2314798363,2303588498,2166202569,2308711533,2303378066,2255076233,2159569334,919,1,16,37996
1372809664,5806,48.0200004577636700,26.4263992309570300,35.3538017272949200,232.3764953613281200,-40.1940002441406250,26.4365501403808600,27.4738197326660160,53,119,92,84,54,15271,2342225609,2340764260,2329476681,2171746971,2338864566,2329569865,2271311789,2161760420,197,1,16,1368
1372809719,5809,45.7999992370605500,26.4241008758544920,35.3511009216308600,232.0843963623047000,-40.2058982849121100,26.4369201660156250,27.4869499206542970,53,119,90,83,59,15273,2360989366,2360436141,2349071195,2177027318,2362694509,2349704813,2283394669,2163932790,3128,1,16,3211
1372809774,5808,43.3199996948242200,26.4423999786376950,35.3478012084960940,232.0565032958984400,-40.6420707702636700,26.4506492614746100,27.4828605651855470,55,119,88,84,54,15278,2376021110,2375233234,2363559954,2181900178,2389657097,2373748233,2298492827,2166184978,2949,1,16,51646
1372809829,5803,40.7799987792968750,26.4526004791259770,35.3338012695312500,231.8150024414062500,-41.0309410095214840,26.4628906250000000,27.4890995025634770,53,119,89,83,50,15270,2397314870,2397482358,2386808493,2189918656,2419315657,2399673956,2315022125,2169579163,2761,1,16,29153
1372809884,5810,38.3300018310546900,26.4622001647949220,35.3324012756347660,231.8358001708984400,-41.4302291870117200,26.4754600524902340,27.4834594726562500,53,118,90,85,56,15271,2416242249,2417054592,2408007149,2199994962,2446705225,2423517001,2330102555,2172138870,2565,1,16,25032
1372809966,5816,34.3699989318847660,26.5981998443603500,35.3269004821777340,231.0697937011718800,-46.0417518615722660,26.6207103729248050,27.4620800018310550,51,119,88,82,58,15272,2427385444,2426061376,2417676388,2209462144,2478068982,2448969590,2344064310,2175886354,1734,0,16,12699
1372810021,5809,31.7099990844726560,26.7366008758544920,35.2934989929199200,230.1459960937500000,-49.9151802062988300,26.7428302764892580,27.4570503234863280,52,116,90,81,51,15274,2418241828,2414549266,2406194788,2214108580,2481217088,2447080685,2341273554,2176551232,830,0,17,18630
1372810076,5812,29.3500003814697270,26.7458000183105470,35.2921981811523440,229.5966949462890600,-50.4102592468261700,26.7584495544433600,27.4763107299804700,51,116,90,83,58,15272,2390773979,2387271186,2380886500,2212842953,2454330130,2419087268,2321718217,2174300315,472,1,17,44308